Location: Unspecified
(0.0000°N, 0.0000°E)
Time: 07:55:11
(UTC+00:00)

ISS - Pass Details

Date: 21 January 2017
Orbit: 399 x 410 km, 51.6° (Epoch: 22 January)

Event Time Altitude Azimuth Distance (km) Brightness Sun altitude
Rises 19:27:49 0° 230° (SW) 2,323 1.9 -17.9°
Reaches altitude 10° 19:30:02 10° 240° (WSW) 1,459 0.7 -18.4°
Maximum altitude 19:33:00 32° 305° (NW) 720 -1.8 -19.1°
Enters shadow 19:34:07 25° 345° (NNW) 864 -1.8 -19.4°
